DW1774 Weather Reports


Display with metric or nautical units.
time (UTC)temp
F
wind
direction
speed
MPH
gust
MPH
rain 1hr
in
rain 24hr
in
rain mn
in
humidity
%
barometer
mb
20200714184404 96 146 3.0 14.0 0.00 0.00 0.00 49 1014.8
20200714183905 96 191 7.0 14.0 0.00 0.00 0.00 49 1015.0
20200714183404 96 180 4.0 13.0 0.00 0.00 0.00 49 1015.0
20200714182904 96 180 5.0 13.0 0.00 0.00 0.00 50 1015.0
20200714182405 96 198 3.0 9.0 0.00 0.00 0.00 49 1015.0
20200714181903 96 166 5.0 9.0 0.00 0.00 0.00 48 1015.0
20200714181403 96 243 2.0 9.0 0.00 0.00 0.00 52 1015.1
20200714180904 96 243 3.0 10.0 0.00 0.00 0.00 52 1015.1
20200714180405 96 169 4.0 16.0 0.00 0.00 0.00 50 1015.1
20200714175904 96 162 3.0 16.0 0.00 0.00 0.00 51 1015.1
20200714175405 96 173 3.0 9.0 0.00 0.00 0.00 49 1015.1
20200714174904 95 206 3.0 13.0 0.00 0.00 0.00 52 1015.2
20200714174403 95 197 3.0 13.0 0.00 0.00 0.00 52 1015.2
20200714173905 95 227 3.0 13.0 0.00 0.00 0.00 52 1015.2
20200714173404 95 240 6.0 13.0 0.00 0.00 0.00 52 1015.1
20200714172905 95 150 7.0 13.0 0.00 0.00 0.00 52 1015.2
20200714172404 95 182 1.0 12.0 0.00 0.00 0.00 56 1015.3
20200714171904 94 207 3.0 12.0 0.00 0.00 0.00 55 1015.3
20200714171404 94 196 2.0 12.0 0.00 0.00 0.00 56 1015.2
20200714170904 94 242 3.0 12.0 0.00 0.00 0.00 54 1015.2
20200714170405 94 234 3.0 10.0 0.00 0.00 0.00 56 1015.3
20200714165903 93 238 2.0 12.0 0.00 0.00 0.00 57 1015.3
20200714165411 93 173 6.0 12.0 0.00 0.00 0.00 56 1015.3
20200714164907 93 171 3.0 12.0 0.00 0.00 0.00 58 1015.2
20200714164404 93 179 3.0 10.0 0.00 0.00 0.00 57 1015.1
20200714163904 93 204 5.0 10.0 0.00 0.00 0.00 57 1015.1
20200714163404 93 276 3.0 12.0 0.00 0.00 0.00 57 1015.2
20200714162904 93 242 2.0 12.0 0.00 0.00 0.00 56 1015.3
20200714162404 93 246 2.0 9.0 0.00 0.00 0.00 60 1015.3
20200714161904 92 209 3.0 9.0 0.00 0.00 0.00 58 1015.3
20200714161404 92 233 2.0 9.0 0.00 0.00 0.00 59 1015.3
20200714160904 91 253 3.0 10.0 0.00 0.00 0.00 60 1015.3
20200714160404 91 198 3.0 13.0 0.00 0.00 0.00 62 1015.3
20200714155903 90 221 5.0 13.0 0.00 0.00 0.00 62 1015.3
20200714155404 91 271 5.0 12.0 0.00 0.00 0.00 61 1015.2
20200714154904 91 256 3.0 10.0 0.00 0.00 0.00 62 1015.2
20200714154403 91 261 2.0 7.0 0.00 0.00 0.00 61 1015.2
20200714153904 91 263 2.0 12.0 0.00 0.00 0.00 64 1015.1
20200714153404 91 273 3.0 12.0 0.00 0.00 0.00 64 1015.0
20200714152904 90 235 4.0 12.0 0.00 0.00 0.00 65 1015.0
20200714152404 89 268 2.0 9.0 0.00 0.00 0.00 66 1015.0
20200714151904 89 256 3.0 13.0 0.00 0.00 0.00 67 1015.0
20200714151405 89 220 5.0 13.0 0.00 0.00 0.00 68 1015.0
20200714150904 88 211 1.0 8.0 0.00 0.00 0.00 70 1015.0
20200714150404 88 255 2.0 10.0 0.00 0.00 0.00 70 1015.1
20200714145904 87 148 2.0 10.0 0.00 0.00 0.00 72 1015.0
20200714145404 87 233 3.0 12.0 0.00 0.00 0.00 74 1015.0
20200714144906 86 206 5.0 12.0 0.00 0.00 0.00 74 1015.0
20200714144404 86 221 5.0 17.0 0.00 0.00 0.00 73 1015.1
20200714143903 86 170 6.0 17.0 0.00 0.00 0.00 73 1015.1
20200714143404 86 234 5.0 10.0 0.00 0.00 0.00 72 1015.0
20200714142905 87 271 3.0 10.0 0.00 0.00 0.00 73 1015.1
20200714142404 87 245 5.0 12.0 0.00 0.00 0.00 73 1015.1
20200714141904 87 193 3.0 12.0 0.00 0.00 0.00 75 1015.0
20200714141404 87 188 5.0 12.0 0.00 0.00 0.00 75 1015.1
20200714140904 86 204 2.0 10.0 0.00 0.00 0.00 77 1015.1
20200714140404 85 197 2.0 10.0 0.00 0.00 0.00 77 1015.0
20200714135904 85 225 3.0 12.0 0.00 0.00 0.00 77 1014.9
20200714135404 85 237 2.0 12.0 0.00 0.00 0.00 77 1014.9
20200714134904 84 219 2.0 12.0 0.00 0.00 0.00 78 1014.9
20200714134405 84 203 3.0 9.0 0.00 0.00 0.00 78 1014.7
20200714133904 84 218 3.0 9.0 0.00 0.00 0.00 78 1014.7
20200714133406 84 198 6.0 9.0 0.00 0.00 0.00 79 1014.8
20200714132904 83 215 5.0 9.0 0.00 0.00 0.00 79 1014.7
20200714132404 83 206 4.0 8.0 0.00 0.00 0.00 79 1014.6
20200714131904 82 190 3.0 10.0 0.00 0.00 0.00 80 1014.6
20200714131408 82 229 2.0 10.0 0.00 0.00 0.00 80 1014.5
20200714130904 81 216 2.0 6.0 0.00 0.00 0.00 79 1014.4
20200714130404 81 189 2.0 6.0 0.00 0.00 0.00 79 1014.3
20200714125909 80 245 3.0 6.0 0.00 0.00 0.00 78 1014.3
20200714125404 80 216 1.0 6.0 0.00 0.00 0.00 77 1014.2
20200714124904 80 248 2.0 6.0 0.00 0.00 0.00 77 1014.2
20200714124404 80 208 2.0 5.0 0.00 0.00 0.00 77 1014.2
20200714123904 79 209 1.0 3.0 0.00 0.00 0.00 76 1014.2
20200714123404 79 237 0.0 2.0 0.00 0.00 0.00 76 1014.2
20200714122904 79 196 0.0 1.0 0.00 0.00 0.00 76 1014.1
20200714122404 78 196 0.0 1.0 0.00 0.00 0.00 76 1014.1
20200714121903 78 196 0.0 1.0 0.00 0.00 0.00 76 1014.0
20200714121404 78 196 0.0 1.0 0.00 0.00 0.00 77 1013.9
20200714120904 78 196 0.0 1.0 0.00 0.00 0.00 77 1013.8
20200714120404 78 196 0.0 1.0 0.00 0.00 0.00 77 1013.7
20200714115903 78 196 0.0 0.0 0.00 0.00 0.00 77 1013.6
20200714115404 78 196 0.0 1.0 0.00 0.00 0.00 78 1013.5
20200714114904 78 196 0.0 1.0 0.00 0.00 0.00 78 1013.5
20200714114403 78 196 0.0 1.0 0.00 0.00 0.00 78 1013.4
20200714113904 78 196 0.0 1.0 0.00 0.00 0.00 78 1013.4
20200714113423 78 196 0.0 1.0 0.00 0.00 0.00 78 1013.3
20200714112905 78 196 0.0 1.0 0.00 0.00 0.00 78 1013.3
20200714112404 78 196 0.0 1.0 0.00 0.00 0.00 78 1013.3
20200714111904 78 196 0.0 3.0 0.00 0.00 0.00 78 1013.3
20200714111403 78 196 0.0 3.0 0.00 0.00 0.00 78 1013.2
20200714110904 78 216 0.0 2.0 0.00 0.00 0.00 78 1013.2
20200714110404 78 216 0.0 2.0 0.00 0.00 0.00 78 1013.1
20200714105905 78 224 0.0 3.0 0.00 0.00 0.00 79 1013.1
20200714105404 78 224 1.0 3.0 0.00 0.00 0.00 79 1013.1
20200714104904 78 193 0.0 3.0 0.00 0.00 0.00 79 1013.0
20200714104404 78 193 1.0 3.0 0.00 0.00 0.00 79 1012.9
20200714103904 78 218 1.0 3.0 0.00 0.00 0.00 79 1012.9
20200714103404 78 245 1.0 3.0 0.00 0.00 0.00 79 1012.9
20200714102903 78 253 1.0 3.0 0.00 0.00 0.00 79 1012.9
20200714102404 78 256 1.0 3.0 0.00 0.00 0.00 79 1013.0
20200714101904 78 234 1.0 3.0 0.00 0.00 0.00 79 1013.0
20200714101404 78 231 2.0 3.0 0.00 0.00 0.00 79 1012.9
20200714100903 79 190 0.0 3.0 0.00 0.00 0.00 79 1012.9
20200714100404 79 190 1.0 6.0 0.00 0.00 0.00 79 1012.9
20200714095904 79 215 1.0 6.0 0.00 0.00 0.00 79 1012.8
20200714095403 79 205 1.0 5.0 0.00 0.00 0.00 79 1012.7
20200714094906 79 223 1.0 6.0 0.00 0.00 0.00 79 1012.7
20200714094403 79 206 3.0 6.0 0.00 0.00 0.00 79 1012.8
20200714093904 79 221 1.0 3.0 0.00 0.00 0.00 79 1012.8
20200714093404 79 231 1.0 5.0 0.00 0.00 0.00 79 1012.9
20200714092904 79 227 2.0 5.0 0.00 0.00 0.00 79 1012.8
20200714092403 79 193 1.0 3.0 0.00 0.00 0.00 79 1012.9
20200714091903 79 205 1.0 3.0 0.00 0.00 0.00 79 1013.0
20200714091404 79 257 0.0 3.0 0.00 0.00 0.00 79 1013.0
20200714090904 79 258 2.0 3.0 0.00 0.00 0.00 79 1012.9
20200714090404 79 200 1.0 3.0 0.00 0.00 0.00 80 1012.9
20200714085903 79 210 0.0 3.0 0.00 0.00 0.00 80 1012.9
20200714085403 79 210 1.0 3.0 0.00 0.00 0.00 80 1012.9
20200714084904 79 209 1.0 3.0 0.00 0.00 0.00 80 1012.9
20200714084412 79 230 1.0 5.0 0.00 0.00 0.00 80 1012.9
20200714083904 80 130 2.0 6.0 0.00 0.00 0.00 80 1012.9
20200714083404 80 206 2.0 6.0 0.00 0.00 0.00 80 1012.9
20200714082904 80 220 2.0 5.0 0.00 0.00 0.00 80 1012.9
20200714082404 80 208 2.0 5.0 0.00 0.00 0.00 80 1013.0
20200714081904 80 202 2.0 5.0 0.00 0.00 0.00 80 1013.0
20200714081403 80 196 2.0 6.0 0.00 0.00 0.00 80 1013.0
20200714080904 80 230 2.0 8.0 0.00 0.00 0.00 80 1013.0
20200714080404 80 226 1.0 8.0 0.00 0.00 0.00 80 1012.9
20200714075904 80 198 3.0 8.0 0.00 0.00 0.00 80 1013.0
20200714075404 80 222 2.0 7.0 0.00 0.00 0.00 80 1013.1
20200714074904 80 237 2.0 7.0 0.00 0.00 0.00 80 1013.1
20200714074404 80 235 2.0 7.0 0.00 0.00 0.00 80 1013.0
20200714073904 80 203 3.0 6.0 0.00 0.00 0.00 80 1013.0
20200714073404 80 217 0.0 8.0 0.00 0.00 0.00 80 1013.0
20200714072904 80 206 2.0 8.0 0.00 0.00 0.00 80 1012.9
20200714072404 80 222 3.0 9.0 0.00 0.00 0.00 80 1012.8
20200714071904 80 243 3.0 9.0 0.00 0.00 0.00 80 1012.8
20200714071406 80 226 1.0 7.0 0.00 0.00 0.00 80 1012.8
20200714070903 80 195 3.0 8.0 0.00 0.00 0.00 80 1012.8
20200714070409 80 209 3.0 9.0 0.00 0.00 0.00 80 1012.8
20200714065903 80 212 3.0 9.0 0.00 0.00 0.00 80 1012.8
20200714065404 81 239 2.0 9.0 0.00 0.00 0.00 80 1012.8
20200714064904 81 209 3.0 10.0 0.00 0.00 0.00 80 1012.8
20200714064404 81 200 3.0 10.0 0.00 0.00 0.00 80 1012.8
20200714063404 81 206 2.0 9.0 0.00 0.00 0.00 80 1012.9
20200714062904 81 213 3.0 9.0 0.00 0.00 0.00 80 1013.0
20200714062404 81 208 3.0 7.0 0.00 0.00 0.00 80 1013.0
20200714061903 81 204 1.0 7.0 0.00 0.00 0.00 80 1013.0
20200714061404 81 205 3.0 7.0 0.00 0.00 0.00 80 1013.1
20200714060903 81 181 2.0 7.0 0.00 0.00 0.00 80 1013.1
20200714060405 81 216 2.0 6.0 0.00 0.00 0.00 80 1013.1
20200714055903 81 194 2.0 6.0 0.00 0.00 0.00 80 1013.2
20200714055405 81 228 1.0 6.0 0.00 0.00 0.00 80 1013.1
20200714054905 81 188 2.0 6.0 0.00 0.00 0.00 80 1013.2
20200714054415 81 198 3.0 7.0 0.00 0.00 0.00 80 1013.1
20200714053905 81 215 3.0 7.0 0.00 0.00 0.00 80 1013.2
20200714053406 81 208 1.0 5.0 0.00 0.00 0.00 80 1013.1
20200714052904 81 206 2.0 7.0 0.00 0.00 0.00 80 1013.2
20200714052403 81 242 2.0 7.0 0.00 0.00 0.00 80 1013.2
20200714051904 82 222 3.0 9.0 0.00 0.00 0.00 80 1013.3
20200714051404 82 234 1.0 10.0 0.00 0.00 0.00 80 1013.4
20200714050904 82 229 2.0 10.0 0.00 0.00 0.00 80 1013.4
20200714050404 82 233 3.0 10.0 0.00 0.00 0.00 79 1013.4
20200714045903 82 184 2.0 9.0 0.00 0.00 0.00 79 1013.4
20200714045404 82 185 4.0 12.0 0.00 0.00 0.00 79 1013.5
20200714044904 82 199 3.0 12.0 0.00 0.00 0.00 79 1013.6
20200714044403 82 213 5.0 12.0 0.00 0.00 0.00 79 1013.5
20200714043904 82 199 2.0 8.0 0.00 0.00 0.00 79 1013.5
20200714043404 82 221 3.0 9.0 0.00 0.00 0.00 79 1013.4
20200714042904 82 172 3.0 9.0 0.00 0.00 0.00 79 1013.4
20200714042404 82 212 3.0 9.0 0.00 0.00 0.00 79 1013.5
20200714041904 82 191 3.0 9.0 0.00 0.00 0.00 79 1013.5
20200714041404 82 205 2.0 10.0 0.00 0.00 0.00 79 1013.5
20200714040904 82 245 4.0 10.0 0.00 0.00 0.00 79 1013.5
20200714040404 82 185 3.0 10.0 0.00 0.00 0.00 79 1013.6
20200714035904 82 183 2.0 9.0 0.00 0.00 0.00 79 1013.6
20200714035405 82 198 3.0 9.0 0.00 0.00 0.00 79 1013.6
20200714034904 82 197 3.0 9.0 0.00 0.00 0.00 79 1013.7
20200714034403 82 166 2.0 9.0 0.00 0.00 0.00 79 1013.6
20200714033904 83 174 3.0 9.0 0.00 0.00 0.00 79 1013.6
20200714033405 83 197 3.0 8.0 0.00 0.00 0.00 79 1013.6
20200714032910 83 176 3.0 9.0 0.00 0.00 0.00 78 1013.6
20200714032404 83 174 3.0 9.0 0.00 0.00 0.00 78 1013.7
20200714031909 83 184 2.0 9.0 0.00 0.00 0.00 77 1013.7
20200714031404 83 164 4.0 9.0 0.00 0.00 0.00 77 1013.7
20200714030904 83 185 3.0 12.0 0.00 0.00 0.00 77 1013.5
20200714030403 83 183 4.0 12.0 0.00 0.00 0.00 77 1013.4
20200714025904 83 193 3.0 12.0 0.00 0.00 0.00 77 1013.4
20200714025404 83 207 3.0 12.0 0.00 0.00 0.00 77 1013.3
20200714024904 84 215 5.0 14.0 0.00 0.00 0.00 77 1013.2
20200714024405 84 190 6.0 16.0 0.00 0.00 0.00 76 1013.2
20200714023903 84 204 5.0 16.0 0.00 0.00 0.00 76 1013.2
20200714023404 84 159 2.0 12.0 0.00 0.00 0.00 76 1013.0
20200714022904 84 191 4.0 13.0 0.00 0.00 0.00 76 1013.0
20200714022403 84 208 5.0 15.0 0.00 0.00 0.00 75 1013.0
20200714021903 84 204 6.0 15.0 0.00 0.00 0.00 75 1012.9
20200714021403 84 189 6.0 15.0 0.00 0.00 0.00 75 1012.8
20200714020904 84 193 2.0 12.0 0.00 0.00 0.00 74 1012.7
20200714020404 85 209 4.0 14.0 0.00 0.00 0.00 74 1012.7
20200714015904 85 171 3.0 14.0 0.00 0.00 0.00 73 1012.7
20200714015405 85 183 6.0 15.0 0.00 0.00 0.00 72 1012.6
20200714014904 85 182 5.0 15.0 0.00 0.00 0.00 72 1012.5
20200714014405 85 197 5.0 13.0 0.00 0.00 0.00 71 1012.4
20200714013904 86 211 6.0 12.0 0.00 0.00 0.00 70 1012.5
20200714013404 86 180 4.0 15.0 0.00 0.00 0.00 69 1012.4
20200714012903 86 205 3.0 16.0 0.00 0.00 0.00 68 1012.4
20200714012404 86 174 6.0 16.0 0.00 0.00 0.00 68 1012.3
20200714011904 86 169 5.0 17.0 0.00 0.00 0.00 67 1012.3
20200714011404 87 169 6.0 17.0 0.00 0.00 0.00 67 1012.2
20200714010904 87 207 6.0 16.0 0.00 0.00 0.00 65 1012.2
20200714010404 87 220 5.0 12.0 0.00 0.00 0.00 65 1012.2
20200714005903 88 191 4.0 12.0 0.00 0.00 0.00 65 1012.2
20200714005405 88 182 5.0 12.0 0.00 0.00 0.00 64 1012.1
20200714004903 88 181 6.0 15.0 0.00 0.00 0.00 64 1012.1
20200714004404 89 187 6.0 15.0 0.00 0.00 0.00 63 1012.1
20200714003906 89 179 4.0 14.0 0.00 0.00 0.00 63 1012.1
20200714003404 89 161 3.0 14.0 0.00 0.00 0.00 62 1012.0
20200714002904 90 166 5.0 12.0 0.00 0.00 0.00 62 1012.1
20200714002404 90 191 4.0 10.0 0.00 0.00 0.00 62 1012.0
20200714001905 90 207 4.0 13.0 0.00 0.00 0.00 62 1011.9
20200714001406 90 223 6.0 13.0 0.00 0.00 0.00 62 1011.9
20200714000904 91 215 5.0 14.0 0.00 0.00 0.00 61 1011.7
20200714000403 91 171 5.0 16.0 0.00 0.00 0.00 62 1011.7
20200713235909 91 186 6.0 16.0 0.00 0.00 0.00 61 1011.6
20200713235409 92 164 6.0 15.0 0.00 0.00 0.00 60 1011.5
20200713235228 92 175 9.0 15.0 0.00 0.00 0.00 59 1011.5
20200713235157 93 182 6.0 16.0 0.00 0.00 0.00 59 1011.4
20200713233904 93 184 6.0 16.0 0.00 0.00 0.00 59 1011.4
20200713233404 94 177 7.0 16.0 0.00 0.00 0.00 58 1011.4
20200713232904 94 175 7.0 17.0 0.00 0.00 0.00 57 1011.3
20200713232405 94 193 7.0 17.0 0.00 0.00 0.00 56 1011.4
20200713231903 94 182 6.0 15.0 0.00 0.00 0.00 56 1011.4
20200713231403 95 164 8.0 15.0 0.00 0.00 0.00 55 1011.5
20200713230904 95 171 6.0 15.0 0.00 0.00 0.00 55 1011.4
20200713230403 95 229 6.0 16.0 0.00 0.00 0.00 54 1011.4
20200713225904 95 182 5.0 16.0 0.00 0.00 0.00 55 1011.5
20200713225404 96 163 8.0 18.0 0.00 0.00 0.00 53 1011.5
20200713224906 96 178 6.0 20.0 0.00 0.00 0.00 54 1011.5
20200713224404 97 195 9.0 20.0 0.00 0.00 0.00 52 1011.6
20200713223903 97 193 6.0 16.0 0.00 0.00 0.00 53 1011.5
20200713223404 96 190 5.0 17.0 0.00 0.00 0.00 54 1011.5
20200713222903 96 172 7.0 17.0 0.00 0.00 0.00 54 1011.5
20200713222404 97 174 7.0 17.0 0.00 0.00 0.00 53 1011.6
20200713221903 98 170 7.0 14.0 0.00 0.00 0.00 51 1011.5
20200713221407 98 180 7.0 13.0 0.00 0.00 0.00 52 1011.5
20200713220904 98 167 7.0 15.0 0.00 0.00 0.00 52 1011.6
20200713220411 97 170 8.0 16.0 0.00 0.00 0.00 52 1011.7
20200713220219 98 156 5.0 12.0 0.00 0.00 0.00 52 1011.7
20200713214944 98 187 3.0 13.0 0.00 0.00 0.00 52 1011.7
20200713214404 98 177 7.0 13.0 0.00 0.00 0.00 51 1011.7
20200713213904 98 187 4.0 12.0 0.00 0.00 0.00 50 1011.8
20200713213404 98 124 3.0 12.0 0.00 0.00 0.00 51 1011.8
20200713212905 98 139 4.0 12.0 0.00 0.00 0.00 51 1011.9
20200713212404 98 197 2.0 10.0 0.00 0.00 0.00 47 1011.9
20200713211905 98 135 5.0 10.0 0.00 0.00 0.00 48 1011.9
20200713211404 97 167 5.0 12.0 0.00 0.00 0.00 50 1011.9
20200713210908 97 149 5.0 12.0 0.00 0.00 0.00 49 1012.0
20200713210404 97 168 3.0 9.0 0.00 0.00 0.00 48 1011.9
20200713205904 98 85 1.0 9.0 0.00 0.00 0.00 48 1012.0
20200713205406 98 80 4.0 9.0 0.00 0.00 0.00 48 1012.1
20200713204904 98 95 3.0 7.0 0.00 0.00 0.00 48 1012.2
20200713204404 98 141 3.0 10.0 0.00 0.00 0.00 47 1012.2
20200713203904 99 156 4.0 10.0 0.00 0.00 0.00 47 1012.3
20200713203406 99 87 2.0 8.0 0.00 0.00 0.00 46 1012.4
20200713202905 99 162 3.0 8.0 0.00 0.00 0.00 46 1012.5
20200713202404 99 132 2.0 7.0 0.00 0.00 0.00 45 1012.6
20200713201904 100 144 1.0 7.0 0.00 0.00 0.00 46 1012.6
20200713201404 100 173 1.0 7.0 0.00 0.00 0.00 44 1012.7
20200713200904 101 214 3.0 6.0 0.00 0.00 0.00 46 1012.6
20200713200403 101 223 2.0 6.0 0.00 0.00 0.00 44 1012.6
20200713195904 101 144 2.0 3.0 0.00 0.00 0.00 45 1012.5
20200713195405 100 201 1.0 3.0 0.00 0.00 0.00 45 1012.6
20200713194905 100 36 2.0 6.0 0.00 0.00 0.00 47 1012.6
20200713194404 99 264 2.0 6.0 0.00 0.00 0.00 49 1012.7
20200713193905 99 166 2.0 9.0 0.00 0.00 0.00 48 1012.5
20200713193408 98 292 3.0 9.0 0.00 0.00 0.00 48 1012.6
20200713192904 98 207 6.0 10.0 0.00 0.00 0.00 48 1012.7
20200713192404 98 191 4.0 10.0 0.00 0.00 0.00 47 1012.7
20200713191905 98 244 2.0 8.0 0.00 0.00 0.00 49 1012.8
20200713191404 99 158 4.0 8.0 0.00 0.00 0.00 46 1012.8
20200713190904 98 238 2.0 9.0 0.00 0.00 0.00 50 1012.9
20200713190404 98 263 5.0 9.0 0.00 0.00 0.00 48 1013.0
20200713185904 98 251 2.0 8.0 0.00 0.00 0.00 50 1013.1
20200713185404 98 252 2.0 8.0 0.00 0.00 0.00 50 1013.1
20200713184904 98 209 3.0 8.0 0.00 0.00 0.00 51 1013.2